Pittsfield, IL

2:09 AM CDT on September 01, 2016 (GMT -0500)
Pittsfield Penstone Municipal

Weather History for KPPQ - August, 2013

Change the Weather History Date:

Thursday, August 22, 2013

  Actual Average (KUIN) Record (KUIN)
Temperature  
Mean Temperature 78 °F 74 °F  
Max Temperature 88 °F 84 °F 103 °F (1936)
Min Temperature 68 °F 64 °F 50 °F (1923)
Degree Days  
Heating Degree Days 0 0  
Month to date heating degree days 0  
Since 1 June heating degree days 16  
Since 1 July heating degree days 0  
Cooling Degree Days 12 9  
Month to date cooling degree days 222  
Year to date cooling degree days 878  
Since 1 June cooling degree days 792  
Growing Degree Days 28 (Base 50)    
Moisture  
Dew Point 69 °F    
Average Humidity 75    
Maximum Humidity 89    
Minimum Humidity 54    
Precipitation  
Precipitation 0.10 in 0.11 in 1.12 in (1905)
Month to date precipitation 2.59  
Year to date precipitation 24.71  
Sea Level Pressure  
Sea Level Pressure 30.08 in    
Wind  
Wind Speed 3 mph (West)    
Max Wind Speed 9 mph    
Max Gust Speed -    
Visibility 9 miles    
Events      
T = Trace of Precipitation, MM = Missing Value Source: NWS Daily Summary

Daily Weather History Graph

Daily Weather History Graph

Search for Another Location

Airport or City:

Trip Planner

Search our weather history database for the weather conditions in past years. The results will help you decide how hot, cold, wet, or windy it might be!

Date:

Astronomy

Aug. 22, 2013 Rise Set
Actual Time 6:22 AM CDT 7:48 PM CDT
Civil Twilight 5:53 AM CDT 8:17 PM CDT
Nautical Twilight 5:19 AM CDT 8:50 PM CDT
Astronomical Twilight 4:44 AM CDT 9:26 PM CDT
Moon 8:33 PM CDT (8/22) 8:10 AM CDT (8/22)
Length of Visible Light 14h 23m
Length of Day
13h 26m
Waning Gibbous, 96% of the Moon is Illuminated
Aug 22
Waning Gibbous
Aug 28
Last Quarter
Sep 5
New
Sep 12
First Quarter
Sep 19
Full

Hourly Weather History & Observations

Time (CDT) Temp. Heat Index Dew Point Humidity Pressure Visibility Wind Dir Wind Speed Gust Speed Precip Events Conditions
12:15 AM 70.0 °F - 65.8 °F 87% 30.08 in 10.0 mi Calm Calm - N/A   Clear
12:35 AM 70.3 °F - 65.7 °F 85% 30.08 in 7.0 mi South 3.5 mph - N/A   Clear
12:55 AM 70.0 °F - 65.7 °F 86% 30.08 in 7.0 mi Calm Calm - N/A   Clear
1:15 AM 72.1 °F - 65.8 °F 80% 30.08 in 10.0 mi SW 3.5 mph - N/A   Clear
1:35 AM 70.3 °F - 65.3 °F 84% 30.07 in 10.0 mi Calm Calm - N/A   Clear
1:55 AM 70.3 °F - 65.3 °F 84% 30.07 in 10.0 mi WSW 3.5 mph - N/A   Clear
2:15 AM 69.1 °F - 64.8 °F 86% 30.08 in 10.0 mi Calm Calm - N/A   Clear
2:35 AM 68.5 °F - 64.6 °F 87% 30.08 in 10.0 mi Calm Calm - N/A   Clear
2:55 AM 69.1 °F - 64.6 °F 86% 30.08 in 10.0 mi Calm Calm - N/A   Clear
3:15 AM 70.9 °F - 65.5 °F 83% 30.08 in 10.0 mi SW 3.5 mph - N/A   Clear
3:35 AM 70.0 °F - 65.3 °F 85% 30.09 in 10.0 mi SW 3.5 mph - N/A   Clear
3:55 AM 71.6 °F - 65.5 °F 81% 30.09 in 10.0 mi Calm Calm - N/A   Clear
4:15 AM 69.1 °F - 64.9 °F 87% 30.08 in 7.0 mi South 3.5 mph - N/A   Clear
4:35 AM 68.5 °F - 64.9 °F 88% 30.08 in 4.0 mi South 4.6 mph - N/A   Clear
4:55 AM 68.9 °F - 65.1 °F 88% 30.07 in 7.0 mi South 3.5 mph - N/A   Clear
5:15 AM 70.2 °F - 65.8 °F 86% 30.07 in 10.0 mi SSW 3.5 mph - N/A   Clear
5:35 AM 69.8 °F - 65.5 °F 86% 30.07 in 10.0 mi South 3.5 mph - N/A   Clear
5:55 AM 69.4 °F - 65.3 °F 87% 30.08 in 10.0 mi SSW 3.5 mph - N/A   Clear
6:15 AM 69.3 °F - 65.5 °F 88% 30.08 in 10.0 mi SW 4.6 mph - N/A   Clear
6:35 AM 70.0 °F - 65.7 °F 86% 30.08 in 10.0 mi Calm Calm - N/A   Clear
6:55 AM 68.4 °F - 64.9 °F 89% 30.09 in 2.5 mi SSW 3.5 mph - N/A   Clear
7:15 AM 71.4 °F - 66.6 °F 85% 30.10 in 7.0 mi SSW 4.6 mph - N/A   Clear
7:35 AM 73.0 °F - 67.6 °F 83% 30.10 in 7.0 mi SW 3.5 mph - N/A   Clear
7:55 AM 75.2 °F - 67.8 °F 78% 30.11 in 10.0 mi WSW 3.5 mph - N/A   Clear
8:15 AM 76.3 °F - 68.7 °F 77% 30.11 in 10.0 mi SW 3.5 mph - N/A   Clear
8:35 AM 76.6 °F - 68.2 °F 75% 30.11 in 5.0 mi WSW 5.8 mph - N/A   Haze
8:55 AM 76.6 °F - 68.2 °F 75% 30.11 in - North - - 0.10 in   Clear
9:15 AM 77.5 °F - 69.1 °F 75% 30.12 in 10.0 mi WSW 3.5 mph - N/A   Clear
9:35 AM 79.5 °F - 69.4 °F 71% 30.11 in 10.0 mi WSW 4.6 mph - N/A   Clear
9:55 AM 79.7 °F - 69.3 °F 70% 30.11 in 10.0 mi West 4.6 mph - N/A   Clear
10:15 AM 81.1 °F 84.5 °F 69.8 °F 68% 30.11 in 10.0 mi West 5.8 mph - N/A   Clear
10:35 AM 82.2 °F 86.0 °F 69.6 °F 66% 30.11 in 10.0 mi West 5.8 mph - N/A   Clear
10:55 AM 84.0 °F 88.7 °F 70.5 °F 64% 30.12 in 10.0 mi West 9.2 mph - N/A   Clear
11:15 AM 83.5 °F 87.4 °F 69.6 °F 63% 30.12 in 10.0 mi West 9.2 mph - N/A   Clear
11:35 AM 84.0 °F 88.1 °F 69.8 °F 62% 30.11 in 10.0 mi WNW 8.1 mph - N/A   Clear
11:55 AM 85.6 °F 90.4 °F 70.2 °F 60% 30.11 in 10.0 mi West 8.1 mph - N/A   Clear
12:15 PM 86.5 °F 92.1 °F 71.1 °F 60% 30.11 in 10.0 mi NW 8.1 mph - N/A   Clear
12:35 PM 87.6 °F 92.3 °F 69.6 °F 55% 30.11 in 10.0 mi West 8.1 mph - N/A   Clear
12:55 PM 86.4 °F 90.7 °F 69.4 °F 57% 30.10 in 10.0 mi WNW 4.6 mph - N/A   Scattered Clouds
1:15 PM 86.5 °F 91.0 °F 69.4 °F 57% 30.10 in 10.0 mi NW 4.6 mph - N/A   Scattered Clouds
1:35 PM 87.4 °F 91.9 °F 69.6 °F 55% 30.09 in 10.0 mi West 4.6 mph - N/A   Scattered Clouds
1:55 PM 87.4 °F 92.3 °F 70.2 °F 56% 30.08 in 10.0 mi WNW 3.5 mph - N/A   Clear
2:15 PM 87.6 °F 91.9 °F 68.9 °F 54% 30.08 in 10.0 mi Calm Calm - N/A   Clear
2:35 PM 86.9 °F 91.3 °F 69.3 °F 56% 30.08 in 10.0 mi Calm Calm - N/A   Clear
2:55 PM 86.2 °F 91.1 °F 70.2 °F 59% 30.08 in 10.0 mi NNE 3.5 mph - N/A   Clear
3:15 PM 86.0 °F 91.5 °F 71.1 °F 61% 30.08 in 10.0 mi NNE 4.6 mph - N/A   Clear
3:35 PM 85.6 °F 91.5 °F 71.8 °F 63% 30.07 in 10.0 mi NE 3.5 mph - N/A   Clear
3:55 PM 86.0 °F 91.8 °F 71.8 °F 62% 30.06 in 10.0 mi ENE 5.8 mph - N/A   Clear
4:15 PM 85.5 °F 90.4 °F 70.5 °F 61% 30.07 in 10.0 mi NE 3.5 mph - N/A   Clear
4:35 PM 85.5 °F 90.8 °F 70.9 °F 62% 30.06 in 10.0 mi ENE 3.5 mph - N/A   Clear
4:55 PM 86.0 °F 91.1 °F 70.7 °F 60% 30.07 in 10.0 mi Calm Calm - N/A   Clear
5:15 PM 85.5 °F 91.1 °F 71.6 °F 63% 30.06 in 10.0 mi NE 4.6 mph - N/A   Clear
5:35 PM 84.7 °F 91.7 °F 73.4 °F 69% 30.06 in 10.0 mi NE 3.5 mph - N/A   Clear
5:55 PM 84.2 °F 90.9 °F 73.6 °F 70% 30.05 in 10.0 mi Calm Calm - N/A   Clear
6:15 PM 83.3 °F 89.6 °F 73.6 °F 72% 30.05 in 10.0 mi Calm Calm - N/A   Clear
6:35 PM 82.6 °F 88.8 °F 73.9 °F 75% 30.05 in 10.0 mi Calm Calm - N/A   Clear
6:55 PM 82.4 °F 88.4 °F 73.9 °F 75% 30.05 in 10.0 mi Calm Calm - N/A   Clear
7:15 PM 81.7 °F 87.6 °F 74.3 °F 78% 30.05 in 10.0 mi Calm Calm - N/A   Clear
7:35 PM 80.2 °F 85.0 °F 74.3 °F 82% 30.05 in 7.0 mi East 3.5 mph - N/A   Clear
7:55 PM 79.7 °F - 73.4 °F 81% 30.05 in 10.0 mi ENE 3.5 mph - N/A   Clear
8:15 PM 78.8 °F - 72.1 °F 80% 30.05 in 10.0 mi NE 3.5 mph - N/A   Clear
8:35 PM 78.1 °F - 71.6 °F 80% 30.06 in 10.0 mi NE 3.5 mph - N/A   Scattered Clouds
8:55 PM 77.2 °F - 70.0 °F 78% 30.07 in 10.0 mi NE 4.6 mph - N/A   Scattered Clouds
9:15 PM 77.0 °F - 69.1 °F 76% 30.08 in 10.0 mi ENE 3.5 mph - N/A   Clear
9:35 PM 76.1 °F - 68.9 °F 78% 30.09 in 10.0 mi NE 3.5 mph - N/A   Clear
9:55 PM 75.2 °F - 68.9 °F 81% 30.09 in 10.0 mi NE 3.5 mph - N/A   Clear
10:15 PM 74.5 °F - 68.9 °F 83% 30.09 in 10.0 mi Calm Calm - N/A   Clear
10:35 PM 73.4 °F - 68.5 °F 85% 30.09 in 10.0 mi ENE 3.5 mph - N/A   Clear
10:55 PM 73.0 °F - 68.4 °F 85% 30.09 in 10.0 mi Calm Calm - N/A   Scattered Clouds
11:15 PM 73.4 °F - 68.7 °F 85% 30.09 in 10.0 mi Calm Calm - N/A   Mostly Cloudy
11:35 PM 72.9 °F - 68.4 °F 86% 30.10 in 10.0 mi Calm Calm - N/A   Scattered Clouds
11:55 PM 72.5 °F - 68.2 °F 86% 30.09 in 10.0 mi Calm Calm - N/A   Mostly Cloudy